date,time,SUV Intensity [MED/Hr],UV Index,Daily total [MED],Since Last [MED]
18/12/2023,00:04:50,0.000,0.0,0.0,0.0
18/12/2023,00:05:50,0.000,0.0,0.0,0.0
18/12/2023,00:06:50,0.001,0.0,0.0,0.0
18/12/2023,00:07:50,0.000,0.0,0.0,0.0
18/12/2023,00:08:49,0.001,0.0,0.0,0.0
18/12/2023,00:09:50,0.000,0.0,0.0,0.0
18/12/2023,00:10:50,0.001,0.0,0.0,0.0
18/12/2023,00:11:50,0.001,0.0,0.0,0.0
18/12/2023,00:12:49,0.001,0.0,0.0,0.0
18/12/2023,00:13:50,0.000,0.0,0.0,0.0
18/12/2023,00:14:50,0.001,0.0,0.0,0.0
18/12/2023,00:15:50,0.001,0.0,0.0,0.0
18/12/2023,00:16:50,0.000,0.0,0.0,0.0
18/12/2023,00:17:49,0.000,0.0,0.0,0.0
18/12/2023,00:18:50,-0.000,0.0,0.0,0.0
18/12/2023,00:19:50,0.000,0.0,0.0,0.0
18/12/2023,00:20:49,-0.001,0.0,0.0,0.0
18/12/2023,00:21:50,0.001,0.0,0.0,0.0
18/12/2023,00:22:50,0.000,0.0,0.0,0.0
18/12/2023,00:23:50,-0.000,0.0,0.0,0.0
18/12/2023,00:24:50,-0.000,0.0,0.0,0.0
18/12/2023,00:25:50,0.000,0.0,0.0,0.0
18/12/2023,00:26:49,-0.001,0.0,0.0,0.0
18/12/2023,00:27:50,0.000,0.0,0.0,0.0
18/12/2023,00:28:50,0.000,0.0,0.0,0.0
18/12/2023,00:29:49,-0.001,0.0,0.0,0.0
18/12/2023,00:30:50,0.000,0.0,0.0,0.0
18/12/2023,00:31:50,0.001,0.0,0.0,0.0
18/12/2023,00:32:50,0.001,0.0,0.0,0.0
18/12/2023,00:33:50,0.001,0.0,0.0,0.0
18/12/2023,00:34:50,0.001,0.0,0.0,0.0
18/12/2023,00:35:50,0.001,0.0,0.0,0.0
18/12/2023,00:36:50,0.000,0.0,0.0,0.0
18/12/2023,00:37:49,0.000,0.0,0.0,0.0
18/12/2023,00:38:50,0.000,0.0,0.0,0.0
18/12/2023,00:39:50,-0.001,0.0,0.0,0.0
18/12/2023,00:40:49,0.000,0.0,0.0,0.0
18/12/2023,00:41:49,0.000,0.0,0.0,0.0
18/12/2023,00:42:50,0.001,0.0,0.0,0.0
18/12/2023,00:43:50,0.000,0.0,0.0,0.0
18/12/2023,00:44:51,0.000,0.0,0.0,0.0
18/12/2023,00:45:50,-0.001,0.0,0.0,0.0
18/12/2023,00:46:50,0.000,0.0,0.0,0.0
18/12/2023,00:47:50,0.000,0.0,0.0,0.0
18/12/2023,00:48:49,-0.001,0.0,0.0,0.0
18/12/2023,00:49:50,-0.000,0.0,0.0,0.0
18/12/2023,00:50:50,0.000,0.0,0.0,0.0
18/12/2023,00:51:50,0.000,0.0,0.0,0.0
18/12/2023,00:52:50,0.001,0.0,0.0,0.0
18/12/2023,00:53:50,0.000,0.0,0.0,0.0
18/12/2023,00:54:49,-0.001,0.0,0.0,0.0
18/12/2023,00:55:50,0.000,0.0,0.0,0.0
18/12/2023,00:56:50,-0.001,0.0,0.0,0.0
18/12/2023,00:57:49,0.000,0.0,0.0,0.0
18/12/2023,00:58:50,0.001,0.0,0.0,0.0
18/12/2023,00:59:50,-0.001,0.0,0.0,0.0
18/12/2023,01:00:49,0.000,0.0,0.0,0.0
18/12/2023,01:01:50,0.000,0.0,0.0,0.0
18/12/2023,01:02:50,0.000,0.0,0.0,0.0
18/12/2023,01:03:50,0.001,0.0,0.0,0.0
18/12/2023,01:04:50,-0.000,0.0,0.0,0.0
18/12/2023,01:05:50,0.000,0.0,0.0,0.0
18/12/2023,01:06:49,0.001,0.0,0.0,0.0
18/12/2023,01:07:50,0.000,0.0,0.0,0.0
18/12/2023,01:08:49,0.000,0.0,0.0,0.0
18/12/2023,01:09:50,-0.001,0.0,0.0,0.0
18/12/2023,01:10:49,0.000,0.0,0.0,0.0
18/12/2023,01:11:50,0.000,0.0,0.0,0.0
18/12/2023,01:12:50,0.000,0.0,0.0,0.0
18/12/2023,01:13:49,0.001,0.0,0.0,0.0
18/12/2023,01:14:50,-0.001,0.0,0.0,0.0
18/12/2023,01:15:50,0.001,0.0,0.0,0.0
18/12/2023,01:16:49,-0.000,0.0,0.0,0.0
18/12/2023,01:17:50,0.001,0.0,0.0,0.0
18/12/2023,01:18:50,0.000,0.0,0.0,0.0
18/12/2023,01:19:50,-0.001,0.0,0.0,0.0
18/12/2023,01:20:50,0.000,0.0,0.0,0.0
18/12/2023,01:21:50,0.001,0.0,0.0,0.0
18/12/2023,01:22:49,-0.001,0.0,0.0,0.0
18/12/2023,01:23:50,0.000,0.0,0.0,0.0
18/12/2023,01:24:50,0.001,0.0,0.0,0.0
18/12/2023,01:25:50,-0.000,0.0,0.0,0.0
18/12/2023,01:26:50,0.000,0.0,0.0,0.0
18/12/2023,01:27:50,0.000,0.0,0.0,0.0
18/12/2023,01:28:50,0.000,0.0,0.0,0.0
18/12/2023,01:29:50,0.000,0.0,0.0,0.0
18/12/2023,01:30:51,0.001,0.0,0.0,0.0
18/12/2023,01:31:50,0.000,0.0,0.0,0.0
18/12/2023,01:32:50,0.000,0.0,0.0,0.0
18/12/2023,01:33:51,0.000,0.0,0.0,0.0
18/12/2023,01:34:50,0.000,0.0,0.0,0.0
18/12/2023,01:35:49,-0.001,0.0,0.0,0.0
18/12/2023,01:36:50,-0.000,0.0,0.0,0.0
18/12/2023,01:37:50,0.000,0.0,0.0,0.0
18/12/2023,01:38:50,0.000,0.0,0.0,0.0
18/12/2023,01:39:50,0.000,0.0,0.0,0.0
18/12/2023,01:40:50,0.000,0.0,0.0,0.0
18/12/2023,01:41:50,0.001,0.0,0.0,0.0
18/12/2023,01:42:50,-0.001,0.0,0.0,0.0
18/12/2023,01:43:50,-0.000,0.0,0.0,0.0
18/12/2023,01:44:50,-0.001,0.0,0.0,0.0
18/12/2023,01:45:50,-0.001,0.0,0.0,0.0
18/12/2023,01:46:50,-0.000,0.0,0.0,0.0
18/12/2023,01:47:50,0.000,0.0,0.0,0.0
18/12/2023,01:48:50,0.001,0.0,0.0,0.0
18/12/2023,01:49:50,-0.001,0.0,0.0,0.0
18/12/2023,01:50:50,0.000,0.0,0.0,0.0
18/12/2023,01:51:50,-0.001,0.0,0.0,0.0
18/12/2023,01:52:50,0.000,0.0,0.0,0.0
18/12/2023,01:53:50,-0.000,0.0,0.0,0.0
18/12/2023,01:54:50,-0.001,0.0,0.0,0.0
18/12/2023,01:55:50,-0.000,0.0,0.0,0.0
18/12/2023,01:56:50,-0.000,0.0,0.0,0.0
18/12/2023,01:57:50,0.000,0.0,0.0,0.0
18/12/2023,01:58:50,-0.001,0.0,0.0,0.0
18/12/2023,01:59:50,0.000,0.0,0.0,0.0
18/12/2023,02:00:50,0.000,0.0,0.0,0.0
18/12/2023,02:01:49,0.000,0.0,0.0,0.0
18/12/2023,02:02:50,-0.001,0.0,0.0,0.0
18/12/2023,02:03:50,0.001,0.0,0.0,0.0
18/12/2023,02:04:50,0.000,0.0,0.0,0.0
18/12/2023,02:05:50,0.001,0.0,0.0,0.0
18/12/2023,02:06:50,-0.001,0.0,0.0,0.0
18/12/2023,02:07:50,0.000,0.0,0.0,0.0
18/12/2023,02:08:50,-0.001,0.0,0.0,0.0
18/12/2023,02:09:50,0.000,0.0,0.0,0.0
18/12/2023,02:10:50,0.001,0.0,0.0,0.0
18/12/2023,02:11:51,0.001,0.0,0.0,0.0
18/12/2023,02:12:50,0.000,0.0,0.0,0.0
18/12/2023,02:13:50,-0.001,0.0,0.0,0.0
18/12/2023,02:14:50,0.001,0.0,0.0,0.0
18/12/2023,02:15:50,0.000,0.0,0.0,0.0
18/12/2023,02:16:50,-0.000,0.0,0.0,0.0
18/12/2023,02:17:50,-0.001,0.0,0.0,0.0
18/12/2023,02:18:51,0.000,0.0,0.0,0.0
18/12/2023,02:19:50,0.001,0.0,0.0,0.0
18/12/2023,02:20:50,0.000,0.0,0.0,0.0
18/12/2023,02:21:50,0.000,0.0,0.0,0.0
18/12/2023,02:22:50,-0.001,0.0,0.0,0.0
18/12/2023,02:23:50,0.000,0.0,0.0,0.0
18/12/2023,02:24:50,0.000,0.0,0.0,0.0
18/12/2023,02:25:50,0.000,0.0,0.0,0.0
18/12/2023,02:26:50,-0.001,0.0,0.0,0.0
18/12/2023,02:27:50,0.000,0.0,0.0,0.0
18/12/2023,02:28:50,-0.001,0.0,0.0,0.0
18/12/2023,02:29:50,0.000,0.0,0.0,0.0
18/12/2023,02:30:50,0.000,0.0,0.0,0.0
18/12/2023,02:31:50,0.000,0.0,0.0,0.0
18/12/2023,02:32:50,0.001,0.0,0.0,0.0
18/12/2023,02:33:50,-0.001,0.0,0.0,0.0
18/12/2023,02:34:50,0.000,0.0,0.0,0.0
18/12/2023,02:35:50,-0.000,0.0,0.0,0.0
18/12/2023,02:36:50,0.000,0.0,0.0,0.0
18/12/2023,02:37:50,0.001,0.0,0.0,0.0
18/12/2023,02:38:50,-0.001,0.0,0.0,0.0
18/12/2023,02:39:50,-0.001,0.0,0.0,0.0
18/12/2023,02:40:50,0.000,0.0,0.0,0.0
18/12/2023,02:41:50,0.001,0.0,0.0,0.0
18/12/2023,02:42:50,0.000,0.0,0.0,0.0
18/12/2023,02:43:50,0.001,0.0,0.0,0.0
18/12/2023,02:44:50,0.001,0.0,0.0,0.0
18/12/2023,02:45:50,0.000,0.0,0.0,0.0
18/12/2023,02:46:50,0.001,0.0,0.0,0.0
18/12/2023,02:47:50,0.001,0.0,0.0,0.0
18/12/2023,02:48:50,-0.000,0.0,0.0,0.0
18/12/2023,02:49:50,0.000,0.0,0.0,0.0
18/12/2023,02:50:50,-0.001,0.0,0.0,0.0
18/12/2023,02:51:50,0.001,0.0,0.0,0.0
18/12/2023,02:52:50,0.000,0.0,0.0,0.0
18/12/2023,02:53:50,0.001,0.0,0.0,0.0
18/12/2023,02:54:50,0.001,0.0,0.0,0.0
18/12/2023,02:55:50,0.000,0.0,0.0,0.0
18/12/2023,02:56:50,0.000,0.0,0.0,0.0
18/12/2023,02:57:50,-0.000,0.0,0.0,0.0
18/12/2023,02:58:50,-0.001,0.0,0.0,0.0
18/12/2023,02:59:50,0.000,0.0,0.0,0.0
18/12/2023,03:00:50,0.000,0.0,0.0,0.0
18/12/2023,03:01:50,0.000,0.0,0.0,0.0
18/12/2023,03:02:50,0.001,0.0,0.0,0.0
18/12/2023,03:03:51,-0.001,0.0,0.0,0.0
18/12/2023,03:04:50,0.000,0.0,0.0,0.0
18/12/2023,03:05:50,0.000,0.0,0.0,0.0
18/12/2023,03:06:50,0.000,0.0,0.0,0.0
18/12/2023,03:07:50,0.000,0.0,0.0,0.0
18/12/2023,03:08:51,-0.000,0.0,0.0,0.0
18/12/2023,03:09:51,0.001,0.0,0.0,0.0
18/12/2023,03:10:50,0.000,0.0,0.0,0.0
18/12/2023,03:11:50,0.000,0.0,0.0,0.0
18/12/2023,03:12:50,0.000,0.0,0.0,0.0
18/12/2023,03:13:50,0.000,0.0,0.0,0.0
18/12/2023,03:14:50,0.000,0.0,0.0,0.0
18/12/2023,03:15:50,0.001,0.0,0.0,0.0
18/12/2023,03:16:50,0.000,0.0,0.0,0.0
18/12/2023,03:17:50,0.001,0.0,0.0,0.0
18/12/2023,03:18:51,0.000,0.0,0.0,0.0
18/12/2023,03:19:50,0.000,0.0,0.0,0.0
18/12/2023,03:20:50,0.000,0.0,0.0,0.0
18/12/2023,03:21:50,-0.001,0.0,0.0,0.0
18/12/2023,03:22:50,0.001,0.0,0.0,0.0
18/12/2023,03:23:51,0.001,0.0,0.0,0.0
18/12/2023,03:24:50,0.001,0.0,0.0,0.0
18/12/2023,03:25:50,0.000,0.0,0.0,0.0
18/12/2023,03:26:50,0.001,0.0,0.0,0.0
18/12/2023,03:27:50,-0.001,0.0,0.0,0.0
18/12/2023,03:28:50,-0.001,0.0,0.0,0.0
18/12/2023,03:29:50,0.001,0.0,0.0,0.0
18/12/2023,03:30:51,0.000,0.0,0.0,0.0
18/12/2023,03:31:50,0.000,0.0,0.0,0.0
18/12/2023,03:32:50,0.000,0.0,0.0,0.0
18/12/2023,03:33:50,0.001,0.0,0.0,0.0
18/12/2023,03:34:51,0.000,0.0,0.0,0.0
18/12/2023,03:35:50,0.000,0.0,0.0,0.0
18/12/2023,03:36:50,-0.001,0.0,0.0,0.0
18/12/2023,03:37:50,0.001,0.0,0.0,0.0
18/12/2023,03:38:50,0.000,0.0,0.0,0.0
18/12/2023,03:39:50,-0.001,0.0,0.0,0.0
18/12/2023,03:40:50,0.001,0.0,0.0,0.0
18/12/2023,03:41:50,0.000,0.0,0.0,0.0
18/12/2023,03:42:50,0.000,0.0,0.0,0.0
18/12/2023,03:43:50,0.000,0.0,0.0,0.0
18/12/2023,03:44:50,0.000,0.0,0.0,0.0
18/12/2023,03:45:50,0.000,0.0,0.0,0.0
18/12/2023,03:46:50,0.001,0.0,0.0,0.0
18/12/2023,03:47:50,-0.000,0.0,0.0,0.0
18/12/2023,03:48:50,-0.000,0.0,0.0,0.0
18/12/2023,03:49:50,0.000,0.0,0.0,0.0
18/12/2023,03:50:50,0.000,0.0,0.0,0.0
18/12/2023,03:51:50,0.001,0.0,0.0,0.0
18/12/2023,03:52:50,0.000,0.0,0.0,0.0
18/12/2023,03:53:50,0.000,0.0,0.0,0.0
18/12/2023,03:54:50,-0.001,0.0,0.0,0.0
18/12/2023,03:55:50,0.000,0.0,0.0,0.0
18/12/2023,03:56:50,0.001,0.0,0.0,0.0
18/12/2023,03:57:51,0.000,0.0,0.0,0.0
18/12/2023,03:58:50,-0.000,0.0,0.0,0.0
18/12/2023,03:59:50,0.000,0.0,0.0,0.0
18/12/2023,04:00:50,0.000,0.0,0.0,0.0
18/12/2023,04:01:50,0.000,0.0,0.0,0.0
18/12/2023,04:02:55,0.000,0.0,0.0,0.0
18/12/2023,04:03:51,0.000,0.0,0.0,0.0
18/12/2023,04:04:50,-0.001,0.0,0.0,0.0
18/12/2023,04:05:50,0.000,0.0,0.0,0.0
18/12/2023,04:06:50,0.000,0.0,0.0,0.0
18/12/2023,04:07:50,-0.000,0.0,0.0,0.0
18/12/2023,04:08:50,-0.001,0.0,0.0,0.0
18/12/2023,04:09:50,0.000,0.0,0.0,0.0
18/12/2023,04:10:50,0.000,0.0,0.0,0.0
18/12/2023,04:11:53,-0.000,0.0,0.0,0.0
18/12/2023,04:12:51,0.000,0.0,0.0,0.0
18/12/2023,04:13:51,0.000,0.0,0.0,0.0
18/12/2023,04:14:50,-0.001,0.0,0.0,0.0
18/12/2023,04:15:50,-0.001,0.0,0.0,0.0
18/12/2023,04:16:51,0.001,0.0,0.0,0.0
18/12/2023,04:17:50,-0.000,0.0,0.0,0.0
18/12/2023,04:18:50,0.001,0.0,0.0,0.0
18/12/2023,04:19:50,0.001,0.0,0.0,0.0
18/12/2023,04:20:51,-0.001,0.0,0.0,0.0
18/12/2023,04:21:50,-0.001,0.0,0.0,0.0
18/12/2023,04:22:50,0.001,0.0,0.0,0.0
18/12/2023,04:23:50,0.000,0.0,0.0,0.0
18/12/2023,04:24:49,0.000,0.0,0.0,0.0
18/12/2023,04:26:13,0.000,0.0,0.0,0.0
18/12/2023,04:26:50,-0.000,0.0,0.0,0.0
18/12/2023,04:27:50,0.000,0.0,0.0,0.0
18/12/2023,04:28:50,0.000,0.0,0.0,0.0
18/12/2023,04:29:50,-0.000,0.0,0.0,0.0
18/12/2023,04:30:50,-0.001,0.0,0.0,0.0
18/12/2023,04:31:50,-0.000,0.0,0.0,0.0
18/12/2023,04:32:49,0.001,0.0,0.0,0.0
18/12/2023,04:34:13,-0.000,0.0,0.0,0.0
18/12/2023,04:34:49,0.001,0.0,0.0,0.0
18/12/2023,04:35:50,0.000,0.0,0.0,0.0
18/12/2023,04:36:50,-0.000,0.0,0.0,0.0
18/12/2023,04:37:51,0.001,0.0,0.0,0.0
18/12/2023,04:38:50,-0.001,0.0,0.0,0.0
18/12/2023,04:39:50,-0.000,0.0,0.0,0.0
18/12/2023,04:40:51,0.000,0.0,0.0,0.0
18/12/2023,04:41:51,0.000,0.0,0.0,0.0
18/12/2023,04:42:50,0.001,0.0,0.0,0.0
18/12/2023,04:43:50,-0.001,0.0,0.0,0.0
18/12/2023,04:44:51,-0.001,0.0,0.0,0.0
18/12/2023,04:45:50,0.000,0.0,0.0,0.0
18/12/2023,04:46:50,-0.000,0.0,0.0,0.0
18/12/2023,04:47:50,0.001,0.0,0.0,0.0
18/12/2023,04:48:51,0.001,0.0,0.0,0.0
18/12/2023,04:49:50,-0.000,0.0,0.0,0.0
18/12/2023,04:50:51,-0.001,0.0,0.0,0.0
18/12/2023,04:51:50,0.000,0.0,0.0,0.0
18/12/2023,04:52:50,-0.000,0.0,0.0,0.0
18/12/2023,04:53:50,-0.000,0.0,0.0,0.0
18/12/2023,04:54:50,-0.001,0.0,0.0,0.0
18/12/2023,04:55:50,-0.000,0.0,0.0,0.0
18/12/2023,04:56:51,-0.001,0.0,0.0,0.0
18/12/2023,04:57:50,-0.001,0.0,0.0,0.0
18/12/2023,04:58:50,0.000,0.0,0.0,0.0
18/12/2023,04:59:50,0.000,0.0,0.0,0.0
18/12/2023,05:00:50,0.000,0.0,0.0,0.0
18/12/2023,05:01:51,-0.001,0.0,0.0,0.0
18/12/2023,05:02:51,0.001,0.0,0.0,0.0
18/12/2023,05:03:51,-0.001,0.0,0.0,0.0
18/12/2023,05:04:51,0.000,0.0,0.0,0.0
18/12/2023,05:05:50,0.000,0.0,0.0,0.0
18/12/2023,05:06:50,0.001,0.0,0.0,0.0
18/12/2023,05:07:51,0.000,0.0,0.0,0.0
18/12/2023,05:08:50,0.001,0.0,0.0,0.0
18/12/2023,05:09:50,-0.000,0.0,0.0,0.0
18/12/2023,05:10:50,0.000,0.0,0.0,0.0
18/12/2023,05:11:50,0.000,0.0,0.0,0.0
18/12/2023,05:12:50,0.000,0.0,0.0,0.0
18/12/2023,05:13:50,-0.001,0.0,0.0,0.0
18/12/2023,05:14:50,0.000,0.0,0.0,0.0
18/12/2023,05:15:50,0.001,0.0,0.0,0.0
18/12/2023,05:16:51,0.000,0.0,0.0,0.0
18/12/2023,05:17:50,0.000,0.0,0.0,0.0
18/12/2023,05:18:50,-0.000,0.0,0.0,0.0
18/12/2023,05:19:51,0.000,0.0,0.0,0.0
18/12/2023,05:20:51,0.000,0.0,0.0,0.0
18/12/2023,05:21:50,0.001,0.0,0.0,0.0
18/12/2023,05:22:50,0.000,0.0,0.0,0.0
18/12/2023,05:23:50,-0.000,0.0,0.0,0.0
18/12/2023,05:24:50,0.000,0.0,0.0,0.0
18/12/2023,05:25:50,-0.000,0.0,0.0,0.0
18/12/2023,05:26:50,0.000,0.0,0.0,0.0
18/12/2023,05:27:50,-0.001,0.0,0.0,0.0
18/12/2023,05:28:51,0.000,0.0,0.0,0.0
18/12/2023,05:29:50,0.000,0.0,0.0,0.0
18/12/2023,05:30:50,-0.000,0.0,0.0,0.0
18/12/2023,05:31:51,-0.000,0.0,0.0,0.0
18/12/2023,05:32:50,-0.001,0.0,0.0,0.0
18/12/2023,05:33:50,-0.001,0.0,0.0,0.0
18/12/2023,05:34:50,0.000,0.0,0.0,0.0
18/12/2023,05:35:51,-0.001,0.0,0.0,0.0
18/12/2023,05:36:50,-0.001,0.0,0.0,0.0
18/12/2023,05:37:50,-0.001,0.0,0.0,0.0
18/12/2023,05:38:51,0.000,0.0,0.0,0.0
18/12/2023,05:39:50,-0.000,0.0,0.0,0.0
18/12/2023,05:40:50,-0.000,0.0,0.0,0.0
18/12/2023,05:41:50,0.000,0.0,0.0,0.0
18/12/2023,05:42:51,0.000,0.0,0.0,0.0
18/12/2023,05:43:51,0.001,0.0,0.0,0.0
18/12/2023,05:44:50,-0.000,0.0,0.0,0.0
18/12/2023,05:45:50,0.000,0.0,0.0,0.0
18/12/2023,05:46:50,-0.000,0.0,0.0,0.0
18/12/2023,05:47:50,0.001,0.0,0.0,0.0
18/12/2023,05:48:50,0.000,0.0,0.0,0.0
18/12/2023,05:49:51,0.000,0.0,0.0,0.0
18/12/2023,05:50:51,-0.001,0.0,0.0,0.0
18/12/2023,05:51:50,0.000,0.0,0.0,0.0
18/12/2023,05:52:50,-0.000,0.0,0.0,0.0
18/12/2023,05:53:50,0.000,0.0,0.0,0.0
18/12/2023,05:54:50,-0.000,0.0,0.0,0.0
18/12/2023,05:55:51,0.000,0.0,0.0,0.0
18/12/2023,05:56:51,-0.001,0.0,0.0,0.0
18/12/2023,05:57:51,0.000,0.0,0.0,0.0
18/12/2023,05:58:51,0.000,0.0,0.0,0.0
18/12/2023,05:59:50,0.001,0.0,0.0,0.0
18/12/2023,06:00:50,0.000,0.0,0.0,0.0
18/12/2023,06:01:51,0.001,0.0,0.0,0.0
18/12/2023,06:02:51,0.000,0.0,0.0,0.0
18/12/2023,06:03:50,0.000,0.0,0.0,0.0
18/12/2023,06:04:50,-0.001,0.0,0.0,0.0
18/12/2023,06:05:51,-0.000,0.0,0.0,0.0
18/12/2023,06:06:50,0.000,0.0,0.0,0.0
18/12/2023,06:07:51,-0.001,0.0,0.0,0.0
18/12/2023,06:08:50,0.001,0.0,0.0,0.0
18/12/2023,06:09:51,-0.000,0.0,0.0,0.0
18/12/2023,06:10:51,-0.000,0.0,0.0,0.0
18/12/2023,06:11:50,-0.000,0.0,0.0,0.0
18/12/2023,06:12:50,-0.001,0.0,0.0,0.0
18/12/2023,06:13:51,-0.001,0.0,0.0,0.0
18/12/2023,06:14:50,0.001,0.0,0.0,0.0
18/12/2023,06:15:51,-0.000,0.0,0.0,0.0
18/12/2023,06:16:51,0.000,0.0,0.0,0.0
18/12/2023,06:17:51,0.001,0.0,0.0,0.0
18/12/2023,06:18:50,-0.000,0.0,0.0,0.0
18/12/2023,06:19:51,-0.000,0.0,0.0,0.0
18/12/2023,06:20:51,0.001,0.0,0.0,0.0
18/12/2023,06:21:50,0.000,0.0,0.0,0.0
18/12/2023,06:22:50,0.001,0.0,0.0,0.0
18/12/2023,06:23:52,0.001,0.0,0.0,0.0
18/12/2023,06:24:51,-0.001,0.0,0.0,0.0
18/12/2023,06:25:50,-0.000,0.0,0.0,0.0
18/12/2023,06:26:50,-0.000,0.0,0.0,0.0
18/12/2023,06:27:50,0.001,0.0,0.0,0.0
18/12/2023,06:28:51,0.000,0.0,0.0,0.0
18/12/2023,06:29:50,0.000,0.0,0.0,0.0
18/12/2023,06:30:50,0.000,0.0,0.0,0.0
18/12/2023,06:31:51,0.000,0.0,0.0,0.0
18/12/2023,06:32:50,0.001,0.0,0.0,0.0
18/12/2023,06:33:50,-0.000,0.0,0.0,0.0
18/12/2023,06:34:50,0.000,0.0,0.0,0.0
18/12/2023,06:35:50,0.000,0.0,0.0,0.0
18/12/2023,06:36:51,0.000,0.0,0.0,0.0
18/12/2023,06:37:50,-0.000,0.0,0.0,0.0
18/12/2023,06:38:50,0.000,0.0,0.0,0.0
18/12/2023,06:39:51,0.001,0.0,0.0,0.0
18/12/2023,06:40:50,-0.000,0.0,0.0,0.0
18/12/2023,06:41:51,0.000,0.0,0.0,0.0
18/12/2023,06:42:50,-0.000,0.0,0.0,0.0
18/12/2023,06:43:51,-0.001,0.0,0.0,0.0
18/12/2023,06:44:51,0.001,0.0,0.0,0.0
18/12/2023,06:45:51,-0.001,0.0,0.0,0.0
18/12/2023,06:46:50,-0.001,0.0,0.0,0.0
18/12/2023,06:47:51,-0.000,0.0,0.0,0.0
18/12/2023,06:48:50,-0.001,0.0,0.0,0.0
18/12/2023,06:49:50,-0.001,0.0,0.0,0.0
18/12/2023,06:50:51,0.001,0.0,0.0,0.0
18/12/2023,06:51:50,0.001,0.0,0.0,0.0
18/12/2023,06:52:51,-0.000,0.0,0.0,0.0
18/12/2023,06:53:51,-0.000,0.0,0.0,0.0
18/12/2023,06:54:50,0.000,0.0,0.0,0.0
18/12/2023,06:55:51,0.001,0.0,0.0,0.0
18/12/2023,06:56:51,-0.000,0.0,0.0,0.0
18/12/2023,06:57:50,0.001,0.0,0.0,0.0
18/12/2023,06:58:51,0.001,0.0,0.0,0.0
18/12/2023,06:59:51,-0.001,0.0,0.0,0.0
18/12/2023,07:00:50,0.000,0.0,0.0,0.0
18/12/2023,07:01:51,0.000,0.0,0.0,0.0
18/12/2023,07:02:51,-0.001,0.0,0.0,0.0
18/12/2023,07:03:50,0.000,0.0,0.0,0.0
18/12/2023,07:04:50,0.001,0.0,0.0,0.0
18/12/2023,07:05:50,0.000,0.0,0.0,0.0
18/12/2023,07:06:51,-0.000,0.0,0.0,0.0
18/12/2023,07:07:50,0.001,0.0,0.0,0.0
18/12/2023,07:08:50,-0.000,0.0,0.0,0.0
18/12/2023,07:09:51,0.000,0.0,0.0,0.0
18/12/2023,07:10:51,0.001,0.0,0.0,0.0
18/12/2023,07:11:51,-0.000,0.0,0.0,0.0
18/12/2023,07:12:50,0.001,0.0,0.0,0.0
18/12/2023,07:13:50,0.000,0.0,0.0,0.0
18/12/2023,07:14:50,0.000,0.0,0.0,0.0
18/12/2023,07:15:51,0.000,0.0,0.0,0.0
18/12/2023,07:16:50,0.001,0.0,0.0,0.0
18/12/2023,07:17:50,-0.000,0.0,0.0,0.0
18/12/2023,07:18:51,-0.000,0.0,0.0,0.0
18/12/2023,07:19:50,-0.001,0.0,0.0,0.0
18/12/2023,07:20:51,0.002,0.0,0.0,0.0
18/12/2023,07:21:51,0.000,0.0,0.0,0.0
18/12/2023,07:22:50,0.000,0.0,0.0,0.0
18/12/2023,07:23:50,-0.000,0.0,0.0,0.0
18/12/2023,07:24:51,-0.000,0.0,0.0,0.0
18/12/2023,07:25:51,-0.001,0.0,0.0,0.0
18/12/2023,07:26:50,0.000,0.0,0.0,0.0
18/12/2023,07:27:51,-0.001,0.0,0.0,0.0
18/12/2023,07:28:51,-0.000,0.0,0.0,0.0
18/12/2023,07:29:50,0.000,0.0,0.0,0.0
18/12/2023,07:30:50,-0.001,0.0,0.0,0.0
18/12/2023,07:31:50,0.000,0.0,0.0,0.0
18/12/2023,07:32:51,-0.000,0.0,0.0,0.0
18/12/2023,07:33:51,0.000,0.0,0.0,0.0
18/12/2023,07:34:50,0.001,0.0,0.0,0.0
18/12/2023,07:35:51,0.000,0.0,0.0,0.0
18/12/2023,07:36:51,0.000,0.0,0.0,0.0
18/12/2023,07:37:50,0.000,0.0,0.0,0.0
18/12/2023,07:38:51,-0.000,0.0,0.0,0.0
18/12/2023,07:39:51,0.001,0.0,0.0,0.0
18/12/2023,07:40:51,-0.001,0.0,0.0,0.0
18/12/2023,07:41:50,-0.000,0.0,0.0,0.0
18/12/2023,07:42:51,-0.000,0.0,0.0,0.0
18/12/2023,07:43:50,0.000,0.0,0.0,0.0
18/12/2023,07:44:51,0.001,0.0,0.0,0.0
18/12/2023,07:45:51,0.001,0.0,0.0,0.0
18/12/2023,07:46:50,-0.001,0.0,0.0,0.0
18/12/2023,07:47:51,-0.000,0.0,0.0,0.0
18/12/2023,07:48:51,0.000,0.0,0.0,0.0
18/12/2023,07:49:51,0.000,0.0,0.0,0.0
18/12/2023,07:50:51,-0.001,0.0,0.0,0.0
18/12/2023,07:51:51,0.000,0.0,0.0,0.0
18/12/2023,07:52:50,0.000,0.0,0.0,0.0
18/12/2023,07:53:50,0.000,0.0,0.0,0.0
18/12/2023,07:54:51,0.000,0.0,0.0,0.0
18/12/2023,07:55:50,0.000,0.0,0.0,0.0
18/12/2023,07:56:51,-0.001,0.0,0.0,0.0
18/12/2023,07:57:51,-0.001,0.0,0.0,0.0
18/12/2023,07:58:50,0.000,0.0,0.0,0.0
18/12/2023,07:59:50,0.000,0.0,0.0,0.0
18/12/2023,08:00:51,0.000,0.0,0.0,0.0
18/12/2023,08:01:51,0.001,0.0,0.0,0.0
18/12/2023,08:02:51,0.000,0.0,0.0,0.0
18/12/2023,08:03:50,0.001,0.0,0.0,0.0
18/12/2023,08:04:50,0.000,0.0,0.0,0.0
18/12/2023,08:05:51,-0.000,0.0,0.0,0.0
18/12/2023,08:06:51,0.001,0.0,0.0,0.0
18/12/2023,08:07:50,0.001,0.0,0.0,0.0
18/12/2023,08:08:51,-0.000,0.0,0.0,0.0
18/12/2023,08:09:50,0.001,0.0,0.0,0.0
18/12/2023,08:10:51,0.001,0.0,0.0,0.0
18/12/2023,08:11:50,0.001,0.0,0.0,0.0
18/12/2023,08:12:51,0.001,0.0,0.0,0.0
18/12/2023,08:13:51,0.001,0.0,0.0,0.0
18/12/2023,08:14:50,0.001,0.0,0.0,0.0
18/12/2023,08:15:51,0.002,0.0,0.0,0.0
18/12/2023,08:16:50,0.002,0.0,0.0,0.0
18/12/2023,08:17:51,0.001,0.0,0.0,0.0
18/12/2023,08:18:50,0.002,0.0,0.0,0.0
18/12/2023,08:19:51,0.001,0.0,0.0,0.0
18/12/2023,08:20:51,0.001,0.0,0.0,0.0
18/12/2023,08:21:50,0.001,0.0,0.0,0.0
18/12/2023,08:22:51,0.002,0.0,0.0,0.0
18/12/2023,08:23:51,0.000,0.0,0.0,0.0
18/12/2023,08:24:51,0.002,0.0,0.0,0.0
18/12/2023,08:25:50,0.002,0.0,0.0,0.0
18/12/2023,08:26:51,0.002,0.0,0.0,0.0
18/12/2023,08:27:51,0.002,0.0,0.0,0.0
18/12/2023,08:28:50,0.002,0.0,0.0,0.0
18/12/2023,08:29:51,0.003,0.0,0.0,0.0
18/12/2023,08:30:50,0.002,0.0,0.0,0.0
18/12/2023,08:31:51,0.003,0.0,0.0,0.0
18/12/2023,08:32:51,0.002,0.0,0.0,0.0
18/12/2023,08:33:50,0.002,0.0,0.0,0.0
18/12/2023,08:34:51,0.003,0.0,0.0,0.0
18/12/2023,08:35:51,0.003,0.0,0.0,0.0
18/12/2023,08:36:51,0.004,0.0,0.0,0.0
18/12/2023,08:37:51,0.004,0.0,0.0,0.0
18/12/2023,08:38:50,0.005,0.0,0.0,0.0
18/12/2023,08:39:50,0.004,0.0,0.0,0.0
18/12/2023,08:40:50,0.005,0.0,0.0,0.0
18/12/2023,08:41:51,0.005,0.0,0.0,0.0
18/12/2023,08:42:51,0.004,0.0,0.0,0.0
18/12/2023,08:43:50,0.004,0.0,0.0,0.0
18/12/2023,08:44:51,0.004,0.0,0.0,0.0
18/12/2023,08:45:51,0.006,0.0,0.0,0.0
18/12/2023,08:46:50,0.004,0.0,0.0,0.0
18/12/2023,08:47:50,0.005,0.0,0.0,0.0
18/12/2023,08:48:51,0.006,0.0,0.0,0.0
18/12/2023,08:49:51,0.005,0.0,0.0,0.0
18/12/2023,08:50:51,0.005,0.0,0.0,0.0
18/12/2023,08:51:51,0.004,0.0,0.0,0.0
18/12/2023,08:52:51,0.005,0.0,0.0,0.0
18/12/2023,08:53:51,0.006,0.0,0.0,0.0
18/12/2023,08:54:51,0.005,0.0,0.0,0.0
18/12/2023,08:55:50,0.006,0.0,0.0,0.0
18/12/2023,08:56:51,0.005,0.0,0.0,0.0
18/12/2023,08:57:50,0.005,0.0,0.0,0.0
18/12/2023,08:58:51,0.007,0.0,0.0,0.0
18/12/2023,08:59:51,0.007,0.0,0.0,0.0
18/12/2023,09:00:50,0.007,0.0,0.0,0.0
18/12/2023,09:01:52,0.008,0.0,0.001,0.001
18/12/2023,09:02:51,0.009,0.0,0.001,0.0
18/12/2023,09:03:50,0.010,0.0,0.001,0.0
18/12/2023,09:04:51,0.009,0.0,0.001,0.0
18/12/2023,09:05:51,0.009,0.0,0.001,0.0
18/12/2023,09:06:51,0.009,0.0,0.001,0.0
18/12/2023,09:07:51,0.009,0.0,0.001,0.0
18/12/2023,09:08:50,0.009,0.0,0.002,0.001
18/12/2023,09:09:51,0.011,0.0,0.002,0.0
18/12/2023,09:10:51,0.010,0.0,0.002,0.0
18/12/2023,09:11:51,0.011,0.0,0.002,0.0
18/12/2023,09:12:51,0.011,0.0,0.002,0.0
18/12/2023,09:13:51,0.011,0.0,0.002,0.0
18/12/2023,09:14:50,0.012,0.0,0.003,0.001
18/12/2023,09:15:51,0.012,0.0,0.003,0.0
18/12/2023,09:16:51,0.010,0.0,0.003,0.0
18/12/2023,09:17:51,0.011,0.0,0.003,0.0
18/12/2023,09:18:51,0.011,0.0,0.003,0.0
18/12/2023,09:19:50,0.011,0.0,0.004,0.001
18/12/2023,09:20:50,0.011,0.0,0.004,0.0
18/12/2023,09:21:51,0.011,0.0,0.004,0.0
18/12/2023,09:22:51,0.014,0.0,0.004,0.0
18/12/2023,09:23:50,0.014,0.0,0.004,0.0
18/12/2023,09:24:51,0.015,0.0,0.005,0.001
18/12/2023,09:25:50,0.017,0.0,0.005,0.0
18/12/2023,09:26:51,0.018,0.0,0.005,0.0
18/12/2023,09:27:51,0.017,0.0,0.005,0.0
18/12/2023,09:28:51,0.018,0.0,0.006,0.001
18/12/2023,09:29:51,0.019,0.0,0.006,0.0
18/12/2023,09:30:50,0.021,0.0,0.006,0.0
18/12/2023,09:31:51,0.021,0.0,0.007,0.001
18/12/2023,09:32:51,0.022,0.0,0.007,0.0
18/12/2023,09:33:50,0.024,0.0,0.007,0.0
18/12/2023,09:34:51,0.025,0.0,0.008,0.001
18/12/2023,09:35:50,0.023,0.0,0.008,0.0
18/12/2023,09:36:51,0.022,0.0,0.009,0.001
18/12/2023,09:37:53,0.022,0.0,0.009,0.0
18/12/2023,09:38:51,0.022,0.0,0.009,0.0
18/12/2023,09:39:51,0.020,0.0,0.01,0.001
18/12/2023,09:40:52,0.022,0.0,0.01,0.0
18/12/2023,09:41:51,0.021,0.0,0.01,0.0
18/12/2023,09:42:51,0.023,0.0,0.011,0.001
18/12/2023,09:43:51,0.024,0.0,0.011,0.0
18/12/2023,09:44:50,0.027,0.0,0.012,0.001
18/12/2023,09:45:51,0.029,0.0,0.012,0.0
18/12/2023,09:46:51,0.029,0.0,0.013,0.001
18/12/2023,09:47:50,0.030,0.0,0.013,0.0
18/12/2023,09:48:51,0.031,0.0,0.014,0.001
18/12/2023,09:49:51,0.033,0.0,0.014,0.0
18/12/2023,09:50:50,0.032,0.0,0.015,0.001
18/12/2023,09:51:51,0.032,0.0,0.015,0.0
18/12/2023,09:52:51,0.031,0.0,0.016,0.001
18/12/2023,09:53:50,0.028,0.0,0.016,0.0
18/12/2023,09:54:51,0.027,0.0,0.017,0.001
18/12/2023,09:55:51,0.027,0.0,0.017,0.0
18/12/2023,09:56:50,0.027,0.0,0.018,0.001
18/12/2023,09:57:51,0.026,0.0,0.018,0.0
18/12/2023,09:58:51,0.026,0.0,0.018,0.0
18/12/2023,09:59:50,0.028,0.0,0.019,0.001
18/12/2023,10:00:51,0.028,0.0,0.019,0.0
18/12/2023,10:01:51,0.030,0.0,0.02,0.001
18/12/2023,10:02:51,0.032,0.0,0.02,0.0
18/12/2023,10:03:51,0.035,0.0,0.021,0.001
18/12/2023,10:04:50,0.036,0.0,0.021,0.0
18/12/2023,10:05:51,0.036,0.0,0.022,0.001
18/12/2023,10:06:51,0.038,0.0,0.023,0.001
18/12/2023,10:07:50,0.039,0.0,0.023,0.0
18/12/2023,10:08:51,0.039,0.0,0.024,0.001
18/12/2023,10:09:50,0.038,0.0,0.025,0.001
18/12/2023,10:10:51,0.038,0.0,0.025,0.0
18/12/2023,10:11:51,0.039,0.0,0.026,0.001
18/12/2023,10:12:50,0.041,0.0,0.027,0.001
18/12/2023,10:13:51,0.046,0.0,0.027,0.0
18/12/2023,10:14:51,0.050,0.0,0.028,0.001
18/12/2023,10:15:51,0.049,0.0,0.029,0.001
18/12/2023,10:16:51,0.050,0.0,0.03,0.001
18/12/2023,10:17:50,0.049,0.0,0.031,0.001
18/12/2023,10:18:51,0.051,0.0,0.031,0.0
18/12/2023,10:19:50,0.051,0.0,0.032,0.001
18/12/2023,10:20:51,0.051,0.0,0.033,0.001
18/12/2023,10:21:51,0.052,0.0,0.034,0.001
18/12/2023,10:22:50,0.050,0.0,0.035,0.001